Voltar ao catálogo

STARLINK-36317

AtivoComunicaçõesSSO
NORAD 67736·PAYLOAD·🇺🇸 United States

Lançado Feb 11, 2026 de Vandenberg Space Force Base

Loading…

Próximas Passagens (próximas 24 horas)

TLE

AtualizadoSource: CelesTrak SupGP

Época: Sep 14, 2026, 22:43 UTC

1 67736C 26026R   26257.94701389  .00009152  00000+0  28411-3 0  2570
2 67736  97.2849 309.8753 0001165  86.8992 164.3959 15.33431440    16

Acompanhe STARLINK-36317 em tempo real com AllMySat

Download on the App Store